Location: The Stocker AstroScience Center
(25.7579°N, 80.3725°W)
Time: 04:19:30
(UTC-04:00)

ISS - All Passes

Search period start: 30 September 2016 00:00
Search period end: 10 October 2016 00:00
Orbit: 400 x 409 km, 51.6° (Epoch: 30 September)

Date Brightness Start Highest point End Pass type
(mag) Time Alt. Az. Time Alt. Az. Time Alt. Az.
30 Sep - 03:56:42 10° NW 03:59:58 68° NE 04:03:14 10° SE night (unlit)
30 Sep - 18:54:14 10° SW 18:57:27 75° NW 19:00:42 10° NE daylight
01 Oct - 03:04:53 10° NNW 03:07:46 28° NE 03:10:40 10° ESE night (unlit)
01 Oct - 04:42:15 10° W 04:44:01 14° SW 04:45:47 10° SSW night (unlit)
01 Oct - 18:02:19 10° SSW 18:05:21 40° SE 18:08:25 10° ENE daylight
01 Oct - 19:40:43 10° WNW 19:41:57 12° NW 19:43:11 10° NNW visible
02 Oct - 02:13:38 10° N 02:15:28 14° NE 02:17:20 10° ENE night (unlit)
02 Oct - 03:49:02 10° WNW 03:51:59 31° SW 03:54:57 10° SSE night (unlit)
02 Oct - 17:11:09 10° SSE 17:13:19 17° SE 17:15:28 10° E daylight
02 Oct - 18:46:58 10° W 18:49:37 23° NW 18:52:17 10° NNE daylight
03 Oct - 02:56:36 10° NW 02:59:53 84° SW 03:03:10 10° SE night (unlit)
03 Oct - 17:54:13 10° SW 17:57:22 52° NW 18:00:33 10° NNE daylight
04 Oct - 02:04:37 10° NNW 02:07:42 37° NE 02:10:46 10° ESE night (unlit)
04 Oct - 03:43:43 10° WSW 03:43:51 10° SW 03:44:00 10° SW night (unlit)
04 Oct - 17:02:02 10° SSW 17:05:12 57° SE 17:08:24 10° NE daylight
05 Oct - 01:13:04 10° N 01:15:24 18° NE 01:17:43 10° E night (unlit)
05 Oct - 02:49:08 10° WNW 02:51:48 23° SW 02:54:29 10° S night (unlit)
05 Oct - 16:10:30 10° S 16:13:07 22° SE 16:15:43 10° ENE daylight
05 Oct - 17:47:12 10° W 17:49:30 18° NW 17:51:48 10° N daylight
06 Oct - 01:56:28 10° NW 01:59:41 58° SW 02:02:54 10° SSE night (unlit)
06 Oct - 16:54:09 10° WSW 16:57:11 38° NW 17:00:14 10° NNE daylight
07 Oct - 01:04:17 10° NNW 01:07:29 52° NE 01:10:41 10° SE night (unlit)
07 Oct - 16:01:43 10° SW 16:04:57 83° SE 16:08:11 10° NE daylight
08 Oct - 00:12:31 10° NNW 00:15:12 23° NE 00:17:51 10° E night (unlit)
08 Oct - 01:49:15 10° W 01:51:30 17° SW 01:53:44 10° S night (unlit)
08 Oct - 15:09:53 10° SSW 15:12:47 30° SE 15:15:41 10° ENE daylight
08 Oct - 16:47:28 10° WNW 16:49:17 14° NW 16:51:06 10° N daylight
08 Oct - 23:21:33 10° NNE 23:22:47 12° NE 23:24:00 10° ENE night (unlit)
09 Oct - 00:56:16 10° WNW 00:59:22 41° SW 01:02:28 10° SSE night (unlit)
09 Oct - 14:19:02 10° SSE 14:20:40 13° SE 14:22:18 10° E daylight
09 Oct - 15:54:02 10° WSW 15:56:53 28° NW 15:59:45 10° NNE daylight
